Location: Boca de Tacagua
(10.5333°N, 66.9833°W)
Time: 05:55:58
(UTC+00:00)

Ariane H10-3 - Pass Details

Date: 08 July 2022
Orbit: 475 x 36438 km, 5.2° (Epoch: 12 August)

Event Time Altitude Azimuth Distance (km) Brightness Sun altitude
Rises 23:46:41 0° 270° (W) 10,403 9.0 -12.5°
Reaches altitude 10° 23:52:00 10° 268° (W) 10,874 8.9 -13.7°
Maximum altitude 01:34:59 55° 258° (WSW) 26,656 9.7 -35.3°
Drops below altitude 10° 09:59:22 10° 128° (SE) 2,977 5.5 -3.6°
Sets 10:01:04 0° 118° (ESE) 3,462 6.0 -3.2°
